Erie International Tom Ridge Field
KERI : now visible

Airfield :











YOU CAN JOIN US ON...

 
LOGIN :

Register | Disclaimer

   EN    FR    IT 

 









Legend :    VFR   Marginal VFR   IFR   Intensive IFR   Very Intensive IFR
Visi :
Ceiling :
>= 8 km
>= 3000ft
5 to 8 km
1000 to 3000 ft
1500m to 5 km
500 to 1000 ft
800 to 1500m
200 to 500 ft
< 800m
< 200 ft
Symbols :   Thunderstorms  Fog  Heavy snow  Heavy precipitations  Wind > 20 kt







- Airport Elevation : 733 ft
- IATA code : ERI


KERI - Erie International Tom Ridge Field

CURRENT METAR :
  • 201551Z 16006KT 10SM CLR 25/14 A3020 RMK AO2 SLP224 T02500139

EXPIRED METARs :
  • 201451Z 18007KT 10SM CLR 22/12 A3022 RMK AO2 SLP231 T02220122 50004
  • 201351Z 18009KT 10SM CLR 19/11 A3022 RMK AO2 SLP231 T01940111

TAF KERI
Valid from the 20 at 12:00 until the 21 at 12:00 UTC


201127Z 2012/2112 16010KT P6SM SKC
FM201700 23004KT P6SM FEW250
FM202000 00000KT P6SM FEW250
FM210400 17007KT P6SM FEW120
No reported NOTAMs for that airfield.



MET'MAP, your aeronautical weather chart ! - Copyright ORBIFLY December 2007 - Disclaimer

ORBIFLY MET'MAP TEAM :

Programming & Development : Alexandra Zaïnal
Concept & Development : Baudouin d'Aumeries
Co-Development & Prog : Marc-Olivier Méhu
Technical & hardware support : Manuel Goepfert

Contact : metmap@orbifly.com




SOURCES & CREDITS :

   NOAA       Earth
Advisory